Location: Amsterdam
(30.7274°N, 84.4357°W)
Time: 07:22:32
(UTC+00:00)

Explorer 11/Cluster Stage 4 - Pass Details

Date: 24 February 2026
Orbit: 463 x 1175 km, 28.8° (Epoch: 12 March)

Event Time Altitude Azimuth Distance (km) Brightness Sun altitude
Rises 13:50:04 0° 223° (SW) 3,899 10.0 19.8°
Reaches altitude 10° 13:53:27 10° 212° (SSW) 2,851 9.4 20.5°
Maximum altitude 13:59:05 27° 158° (SSE) 1,741 9.3 21.5°
Drops below altitude 10° 14:04:00 10° 103° (ESE) 2,452 10.9 22.5°
Sets 14:06:40 0° 90° (E) 3,260 10.8 23.0°
